User: anonymous   Login
Location: Oshawa
(43.9000°N, 78.8670°W)
Time: 10:33:04
(UTC-04:00)
Language:

SPOT 5 - Orbit

View from above orbital plane
View from above orbital plane
View from above satellite
View from above satellite

Ground track
Ground track

The orbit data is extracted from the following two-line orbital elements,

1 27421U 02021A   14298.20291756  .00000236  00000-0  13041-3 0   632
2 27421 098.5467 357.1092 0001337 102.8126 328.8873 14.20117122646778
Epoch (UTC): 25 October 2014 04:52:12
Eccentricity: 0.0001337
inclination: 98.5467°
perigee height: 824 km
apogee height: 826 km
right ascension of ascending node: 357.1092°
argument of perigee: 102.8126°
revolutions per day: 14.20117122
mean anomaly at epoch: 328.8873°
orbit number at epoch: 64677

The dashed part of the orbit path shows where the satellite is in the earth's shadow,  

DLR